TDRS-6

operational
NORAD ID: 22314 Int'l Des: 1993-003 Owner: GSFC Country: US
HEOCIRCULARGSO

TDRS-6について

説明を読み込み中...

リアルタイム位置

3D地球を読み込み中...

次回通過

高度履歴

Altitude vs Time

uPlot chart will show altitude changes over time

軌道要素

1 22314U 93003B 26061.53163076 -.00000305 00000-0 00000-0 0 9992
2 22314 14.1806 357.8486 0005607 201.3749 106.4555 1.00279431121332
Epoch: Mar 2, 2026 • Age: 24 hours

現在のステータス

高度 35777.9 km
速度 3.08 km/s
衛星直下点 11.68°N, 45.23°W
打ち上げ日 Jan 13, 1993
運用期間 33.1 years
タイプ other

技術仕様

分類 Payload
質量 2534.00 kg
乾燥質量 1673.00 kg
総質量 2534.00 kg
長さ 1.30 m
直径 2.40 m
スパン 17.40 m
形状 Box + Dish + 2 Pan
製造者 TRW
バスタイプ TDRS
フェーズステータス In Orbit
所有者/国 GSFC/US

大規模コンステレーション

Loading constellations...